Tracking 19245 objects as of 19-Aug-2018
HD Live streaming from Space Station
objects crossing your sky now

COSMOS 1828

Track COSMOS 1828 now!
10-day predictions
COSMOS 1828 is classified as:


NORAD ID: 17583
Int'l Code: 1987-026B
Perigee: 1,389.0 km
Apogee: 1,420.1 km
Inclination: 82.6 °
Period: 113.7 minutes
Semi major axis: 7775 km
RCS: 1.1912 m2 (large)
Launch date: March 13, 1987
Source: Commonwealth of Independent States (former USSR) (CIS)
Launch site: PLESETSK MISSILE AND SPACE COMPLEX (PKMTR)
aabbcc
Your satellite tracking list
Your tracking list is empty




NASA's NSSDC Master Catalog

Two Line Element Set (TLE):
1 17583U 87026B   18230.89160431  .00000028  00000-0  93042-4 0  9995
2 17583  82.5657 206.5671 0019957 110.6837 276.1796 12.66207501452923
Source of the keplerian elements: AFSPC